Tracking 27420 objects as of 11-Jun-2023
HD Live streaming from Space Station
objects crossing your sky now

SKIPPER

Track SKIPPER now!
10-day predictions
SKIPPER is classified as:


NORAD ID: 23752
Int'l Code: 1995-072B
Perigee: 807.8 km
Apogee: 817.3 km
Inclination: 98.9 °
Period: 101.0 minutes
Semi major axis: 7183 km
RCS: 0.7042 m2 (medium)
Launch date: December 28, 1995
Source: United States (US)
Launch site: TYURATAM MISSILE AND SPACE COMPLEX (TTMTR)
Your satellite tracking list
Your tracking list is empty




NASA's NSSDC Master Catalog

Two Line Element Set (TLE):
1 23752U 95072B   23161.38307338  .00000021  00000-0  27876-4 0  9997
2 23752  98.8835 211.3966 0006587  85.6503 274.5429 14.25914528428168
Source of the keplerian elements: AFSPC